Wind_Gust
14 14 11 12 13 14 17 17 20 21 19 19 12 16 14 12 12 14 15 11 14 11 13 12 17 13 14 15 15 15 17 15 16 17 14 15 11 15 16 15 14 14 13 15 15 13 14 13 13 15 14 14 14 15 14 13 12 12 12 12 12 12 12 13 13 13 13 13 13 13 12 13 13 13 13 13 13 12 12 13 12 11 11 12 12 11 10 10 9 9 9 10 10 10 11 11 10
13 11 11 12 15 18 18 11 24 14 18 16 14 12 14 12 13 11 13 14 13 12 12 12 14 15 12 13 12 12 15 16 15 17 13 16 13 19 15 15 14 14 14 14 14 13 15 16 15 15 15 15 15 15 14 14 13 13 13 13 13 13 14 14 14 13 13 13 13 13 12 12 13 14 13 13 13 13 13 12 12 11 12 11 12 14 14 14 12 13 10 9 9 10 9 10 10
11 13 15 15 17 20 15 19 21 15 18 19 15 11 15 12 11 12 11 12 11 13 12 11 11 12 12 12 14 16 14 11 14 17 13 9 14 13 15 15 14 14 14 14 13 14 15 15 15 16 16 16 15 14 14 13 13 13 15 15 14 15 15 15 15 15 14 13 14 13 13 13 13 14 14 13 13 13 13 13 13 12 12 12 12 11 12 13 13 15 14 11 9 8 9 9 9
13 11 15 17 20 15 19 16 19 15 19 14 11 15 11 10 13 11 11 12 12 12 15 15 13 9 13 17 14 10 14 12 18 12 13 15 14 15 14 14 14 14 13 13 14 15 16 16 15 15 15 14 14 13 13 13 13 13 15 15 15 15 15 15 15 15 14 14 13 14 13 13 13 14 13 13 13 13 12 12 12 12 12 12 11 12 13 13 12 11 11 10 8 10 8 8 8
14 12 14 18 18 20 17 13 14 14 20 12 15 16 11 11 13 14 14 11 10 11 13 13 15 11 12 14 11 13 15 14 17 16 12 10 12 14 13 14 14 15 16 15 15 17 17 16 15 14 14 14 13 13 13 13 14 15 16 16 16 15 15 15 15 14 15 14 14 14 14 14 14 13 13 13 13 13 13 12 12 13 13 12 13 12 12 12 12 11 12 10 11 10 9 9 9
14 15 13 19 16 22 18 16 19 20 16 12 11 14 12 11 14 15 14 9 10 13 11 16 12 16 13 15 17 14 17 11 11 15 13 12 15 13 12 14 15 17 16 15 17 17 17 16 15 14 14 14 13 14 15 15 16 16 16 16 16 16 16 16 16 15 15 15 15 15 15 15 14 14 14 13 13 13 13 12 13 13 13 13 13 12 11 11 12 11 9 9 10 11 10 10 9
20 20 19 22 16 20 19 15 13 13 15 11 13 13 11 14 14 12 11 9 8 11 10 11 11 16 14 17 20 20 20 14 12 12 13 14 12 12 14 15 17 17 16 15 18 18 17 16 16 14 13 14 14 15 15 15 16 16 15 15 15 16 16 15 15 15 15 15 15 15 15 15 14 14 14 14 13 13 12 12 12 12 13 13 13 11 11 11 10 10 10 11 11 11 9 9 9
10 20 20 21 16 21 18 12 12 14 18 12 13 10 11 13 11 11 10 12 11 10 11 10 10 14 16 10 13 17 19 21 18 16 14 14 12 16 15 15 17 16 15 16 16 15 15 16 14 12 12 13 14 14 15 15 15 15 15 15 15 15 14 15 15 15 15 15 15 14 14 14 14 14 14 14 13 12 12 11 11 11 11 12 11 11 11 11 11 11 10 11 11 10 9 9 8
19 16 15 17 15 13 14 16 12 11 14 11 13 11 9 9 9 11 11 8 9 8 9 10 11 12 12 16 18 14 17 18 18 16 13 12 14 15 17 15 16 16 16 16 16 15 17 17 15 15 15 14 14 15 15 16 15 15 15 15 14 14 14 14 15 15 15 15 14 14 14 14 14 13 13 13 13 12 12 11 11 10 11 11 12 11 11 11 10 10 11 10 9 9 9 8 8
18 19 21 20 11 18 14 15 18 16 12 12 10 13 9 8 9 9 10 10 10 9 12 10 10 14 14 17 16 12 15 15 17 16 14 15 15 15 16 16 16 16 16 17 16 16 17 15 16 16 16 14 15 16 15 15 14 15 16 16 15 14 13 14 14 15 15 14 14 14 14 13 13 13 13 12 12 13 13 13 12 12 11 11 11 11 11 10 10 9 9 9 9 9 8 9 9
20 15 11 17 18 12 18 15 12 16 13 13 12 11 10 11 10 10 10 11 10 10 9 12 10 12 13 16 17 10 16 19 17 16 14 15 15 16 16 16 16 15 16 16 15 15 15 15 15 17 16 15 15 14 14 14 15 15 15 16 17 15 14 14 13 13 14 14 13 13 13 14 13 13 12 12 12 11 11 11 11 11 12 11 11 11 11 10 9 8 8 8 8 8 8 8 9
18 17 19 17 14 14 11 11 13 15 13 13 14 11 11 10 8 11 9 11 8 7 10 11 11 10 13 14 13 13 17 18 17 13 14 14 17 16 15 15 14 14 14 14 14 15 14 13 13 15 16 16 15 15 15 16 16 17 16 15 15 15 14 14 13 13 13 13 13 13 12 12 12 13 12 12 12 11 11 10 10 11 11 11 11 11 10 10 9 9 8 8 7 7 7 7 7
17 13 14 16 12 13 15 13 14 11 14 14 12 12 11 9 10 9 9 8 8 9 12 12 9 10 12 11 13 15 19 13 14 12 14 15 15 15 15 15 14 14 14 14 15 14 13 13 14 14 14 15 14 15 14 15 15 15 13 13 12 12 14 13 14 13 12 11 11 11 11 11 11 11 11 11 12 12 11 11 11 11 11 11 11 11 11 10 9 8 8 8 7 7 8 8 8
16 15 12 15 12 10 15 13 14 18 17 15 14 11 8 10 9 11 11 9 8 11 13 12 9 9 15 18 14 13 17 15 15 13 14 14 15 16 15 15 14 14 14 14 15 14 13 13 13 13 13 13 12 12 12 14 12 11 11 10 10 11 12 11 11 9 9 10 9 9 10 10 10 11 10 11 11 12 11 12 11 11 11 12 12 11 11 11 10 9 9 8 7 7 8 8 9
12 13 13 13 14 15 13 18 14 16 16 12 14 11 10 9 9 7 10 10 14 10 10 11 15 18 13 13 15 13 16 16 14 14 15 14 15 15 15 15 14 14 15 15 14 14 13 13 13 12 12 12 13 12 13 15 13 13 13 12 13 12 12 11 11 9 9 9 10 10 10 10 10 12 12 12 13 14 14 12 13 12 12 12 12 12 11 11 10 9 9 9 8 8 8 8 9
12 18 12 14 14 17 19 12 10 14 17 12 12 9 11 10 10 9 10 13 15 10 12 12 17 13 14 18 16 16 15 15 14 14 16 16 14 15 15 15 15 14 15 14 14 13 13 14 14 15 15 14 13 13 14 14 14 15 14 14 15 15 14 13 13 12 12 12 11 12 11 11 10 13 11 15 13 14 14 14 14 14 14 14 13 13 12 12 11 11 10 10 9 9 10 9 10
10 17 17 11 15 16 18 14 14 14 16 13 12 13 14 12 8 9 8 10 11 12 12 14 14 11 17 16 15 16 16 16 14 14 14 14 15 15 15 14 14 14 13 15 14 14 14 14 14 14 15 18 16 12 13 14 14 14 12 15 15 15 14 15 15 14 13 12 11 11 9 12 12 12 13 15 11 18 15 14 14 15 15 15 14 14 15 14 14 13 12 11 10 10 10 10 10
14 16 14 15 12 13 14 13 15 12 11 15 12 12 14 14 11 11 12 12 12 11 12 14 16 17 16 16 14 15 14 14 13 13 14 13 12 14 14 14 13 14 14 14 15 14 15 15 14 14 18 18 19 14 12 13 13 13 14 13 14 14 14 13 15 15 12 12 11 12 12 12 13 14 13 10 15 15 17 17 17 16 16 16 15 16 16 16 16 15 15 14 13 12 12 17 14
16 11 14 15 13 17 13 15 14 13 13 13 11 11 13 12 10 14 15 13 12 13 13 13 16 17 17 16 15 14 14 15 14 14 14 13 14 14 13 14 14 14 15 14 15 16 15 14 13 14 13 13 15 12 12 13 13 12 13 14 13 13 14 15 14 14 14 15 15 15 13 14 14 15 16 16 14 16 19 18 18 18 17 18 16 16 16 17 16 16 17 16 14 14 16 12 12
12 18 15 13 12 14 13 12 13 9 14 16 14 11 12 13 12 11 15 14 11 10 12 16 15 15 14 16 14 14 14 15 14 14 15 14 13 13 13 13 15 15 13 13 14 15 15 15 15 13 13 12 11 14 12 12 12 12 13 13 13 12 12 13 14 15 16 16 15 14 13 13 13 13 12 16 14 14 14 15 18 17 17 17 19 12 14 15 15 15 16 16 11 10 14 14 16
12 14 14 13 11 11 14 12 12 11 12 15 13 13 13 10 9 13 14 13 12 10 14 11 14 14 15 14 15 14 14 14 14 14 14 15 15 15 14 13 13 12 12 12 14 16 13 14 13 13 13 14 14 14 12 13 12 13 13 13 13 14 14 14 14 15 15 15 15 14 14 13 13 14 14 14 14 13 14 14 15 16 15 16 16 14 15 15 14 15 15 14 14 14 14 14 15
12 15 14 12 10 11 11 11 10 11 10 16 13 14 14 12 11 15 18 16 14 11 14 16 13 14 15 14 14 14 15 15 15 15 15 16 16 15 13 13 11 12 14 16 15 15 16 15 13 13 13 14 14 14 13 12 12 14 14 14 14 15 15 15 15 15 15 15 14 14 12 13 13 14 14 14 14 14 15 15 16 15 16 16 15 15 16 15 16 15 15 16 14 13 13 14 14
13 14 12 14 11 12 11 11 12 10 13 13 12 14 13 13 13 13 16 13 11 10 19 17 16 15 14 15 14 15 15 15 15 15 16 17 16 13 13 14 13 15 16 17 13 15 16 16 14 13 15 14 14 13 12 13 15 14 15 16 15 16 15 15 16 15 16 15 14 14 13 13 13 14 14 14 15 15 16 16 16 16 16 17 17 16 15 15 15 15 15 15 15 14 14 15 14
13 17 12 16 13 15 11 13 12 14 12 12 13 13 13 13 13 11 15 11 12 12 16 17 15 16 17 16 15 17 16 16 15 15 15 16 15 13 13 14 17 16 15 16 16 15 16 15 13 14 12 11 14 12 13 15 15 15 15 15 17 16 16 16 15 15 14 15 14 14 13 13 14 14 14 14 14 15 16 15 16 17 17 16 16 16 17 16 16 15 14 15 16 15 16 16 15
18 17 11 14 14 14 13 14 15 16 14 13 12 15 12 12 14 11 13 12 12 17 16 18 17 18 16 16 15 17 17 16 16 16 15 17 14 14 14 15 16 17 18 16 14 15 13 13 12 13 13 13 14 13 15 15 15 15 15 16 17 13 16 15 14 13 14 14 15 15 15 15 15 14 15 14 15 15 15 16 17 17 17 18 17 17 17 16 16 15 15 15 15 16 15 15 15
12 14 13 14 15 13 13 16 14 12 13 10 16 16 14 13 16 15 13 15 15 18 18 16 16 15 17 16 14 14 16 16 16 16 15 14 14 15 14 14 15 16 15 15 15 14 13 13 14 14 14 14 13 13 15 14 14 15 15 15 15 14 15 14 12 14 14 14 16 16 16 16 15 16 15 15 15 15 15 15 15 16 16 17 18 17 17 17 16 16 16 16 17 17 16 16 15
16 18 16 16 14 12 12 13 12 10 11 9 11 13 11 9 12 15 13 16 16 18 18 15 13 16 16 16 14 14 16 14 15 15 15 14 14 15 14 14 15 14 14 15 13 14 13 14 15 15 14 12 13 14 14 14 13 14 14 15 15 15 15 13 14 14 14 15 15 15 16 16 16 16 16 15 15 15 14 14 15 15 16 17 17 17 16 16 15 16 17 16 16 16 15 14 15
19 22 19 18 17 15 12 12 10 11 14 12 12 14 13 13 11 14 16 16 16 19 18 17 13 17 18 15 16 14 14 14 15 14 16 14 14 14 13 15 14 14 14 13 13 13 14 15 16 15 14 14 15 14 14 14 13 13 13 15 15 15 13 14 14 14 14 16 16 15 15 16 15 15 15 15 14 14 14 14 15 16 16 16 16 16 16 15 16 17 16 15 14 13 14 13 14
18 13 16 14 12 16 12 10 9 8 15 9 14 14 15 14 13 15 17 16 16 19 20 20 20 19 17 17 17 16 16 14 14 16 15 14 14 14 14 12 14 14 13 12 12 13 15 15 16 14 14 14 14 14 14 13 13 13 14 14 14 13 14 14 14 14 14 14 14 15 15 15 14 15 13 14 13 14 14 14 15 15 16 16 15 15 15 15 16 17 17 15 16 15 14 14 14
13 11 15 16 15 15 11 10 10 10 14 9 12 12 14 17 18 16 15 16 16 17 18 21 19 18 18 16 17 16 15 14 14 15 15 15 15 14 14 13 12 12 14 13 13 15 13 14 14 14 13 15 13 13 11 13 13 13 13 13 13 13 14 13 13 13 13 13 13 15 15 16 15 15 15 14 14 14 14 15 15 16 17 15 15 16 16 17 18 19 19 18 16 18 17 15 15
12 12 13 10 15 17 13 9 9 10 11 10 11 14 15 16 16 13 12 14 16 18 17 17 17 16 17 16 16 16 13 13 15 15 14 14 14 15 15 13 12 11 12 13 14 13 12 13 13 14 13 14 13 13 14 13 12 13 13 14 14 13 13 14 13 13 12 13 14 16 15 15 15 15 15 14 14 14 15 16 17 18 17 16 18 17 17 19 19 21 21 21 19 18 20 16 16
17 19 15 12 12 19 13 8 11 10 12 9 15 16 16 16 16 13 10 13 14 18 17 17 18 17 14 15 16 16 16 15 14 14 14 14 13 15 14 12 10 11 12 12 13 13 14 13 12 14 13 13 13 13 13 13 12 12 13 11 13 12 14 13 13 13 14 14 14 15 15 15 15 14 15 15 14 15 16 16 17 17 16 17 18 17 18 21 21 21 22 22 21 21 21 19 16
18 17 12 10 9 17 15 10 10 10 8 9 12 16 15 14 16 13 10 13 13 16 16 16 15 14 14 16 16 17 18 16 15 15 14 14 14 14 14 11 11 11 10 11 12 13 14 14 13 14 14 14 13 14 14 12 11 12 12 13 13 13 14 14 14 14 15 15 15 15 14 15 15 14 14 14 14 14 16 17 17 17 17 18 18 19 20 21 21 22 22 23 22 22 22 21 18
14 10 12 10 11 15 16 15 10 8 11 9 11 15 17 19 17 15 12 11 13 16 17 15 15 15 15 16 16 17 17 18 18 16 15 14 16 13 12 11 11 11 11 11 10 12 14 14 13 13 13 13 13 13 12 11 12 11 12 13 12 14 13 14 14 15 15 16 15 15 14 14 14 14 14 14 13 15 16 17 17 17 18 18 18 18 20 21 20 20 20 21 22 22 23 23 19
13 13 13 14 12 11 14 11 12 11 10 10 12 14 15 16 17 15 13 13 13 17 17 16 15 15 16 16 17 16 16 16 17 16 15 14 14 13 13 11 11 11 11 11 11 11 13 13 13 13 13 13 13 12 12 12 11 11 12 11 12 12 13 15 14 15 15 15 15 14 14 14 15 15 15 14 14 15 16 17 17 15 17 18 18 18 19 19 19 20 20 20 19 21 21 21 21
15 12 14 13 13 13 13 13 11 9 9 10 11 14 17 16 16 16 15 15 15 16 16 16 16 17 16 15 15 16 17 17 16 16 15 15 14 12 11 11 11 11 11 12 12 12 12 13 13 13 11 11 12 11 11 11 11 11 12 11 13 13 15 15 14 15 14 15 15 15 15 14 16 15 15 15 15 15 15 15 15 16 16 17 17 18 18 18 17 18 18 19 20 20 21 22 23
17 13 13 13 13 15 13 12 11 9 10 13 11 13 15 16 16 16 16 15 16 18 18 17 17 17 17 16 16 17 16 17 16 16 15 15 14 13 11 11 13 13 12 12 12 12 12 13 13 12 11 10 10 11 10 10 10 11 11 12 11 11 12 12 14 14 15 15 16 16 15 16 16 16 16 16 15 14 15 15 15 16 15 16 15 15 15 15 16 16 17 17 18 19 22 23 25
16 15 14 14 9 15 11 11 9 9 13 15 10 12 14 16 15 16 16 16 18 19 19 18 17 17 16 15 15 16 16 16 18 16 15 13 14 13 12 12 12 13 12 12 13 12 12 12 12 12 10 9 8 8 9 9 9 13 12 14 13 15 15 14 14 14 13 15 14 14 15 15 16 16 16 15 15 16 15 15 15 15 14 14 14 15 15 15 16 17 18 19 21 21 22 22 23
14 15 14 14 15 16 13 11 9 9 13 16 13 13 14 15 15 15 16 16 17 18 17 17 18 18 16 16 15 17 17 16 16 15 14 14 13 14 13 12 13 14 13 13 13 13 13 13 12 11 10 9 9 9 8 11 9 10 11 12 12 14 14 14 14 12 12 14 13 13 14 14 15 17 16 15 16 15 14 14 14 13 14 15 15 15 15 16 17 18 17 20 21 22 21 21 18
15 15 13 16 16 13 15 14 10 10 10 12 14 13 15 14 13 14 15 17 15 14 14 15 16 18 17 17 16 17 18 18 17 17 16 15 13 13 14 15 14 13 13 14 13 14 13 13 11 11 11 10 10 10 11 10 10 9 10 10 12 16 13 11 9 9 12 11 14 14 15 14 15 17 16 16 16 13 12 13 14 13 14 14 16 17 17 18 18 18 17 18 19 22 25 22 21
14 13 11 15 15 10 14 18 13 12 13 10 15 13 18 18 19 19 18 17 15 17 17 18 17 15 16 16 16 16 18 18 19 18 17 16 15 14 14 15 15 13 14 14 14 13 15 14 12 11 12 11 11 10 9 9 11 11 10 10 10 11 10 11 12 13 12 12 12 13 14 13 14 15 14 14 15 13 13 13 15 14 14 15 16 17 17 18 19 20 19 18 18 19 23 21 19
14 13 13 12 13 12 13 16 15 17 17 16 12 16 17 21 20 21 22 22 21 20 21 21 20 19 18 18 18 18 17 17 18 19 19 18 16 15 15 14 13 15 15 15 16 16 14 15 15 12 12 11 11 9 9 9 11 12 12 12 14 13 15 13 13 12 13 14 16 11 12 12 13 12 14 14 15 15 14 14 14 16 15 15 15 16 18 18 18 20 19 18 18 17 20 20 21
10 16 13 13 14 14 16 14 14 10 12 17 11 16 14 19 20 20 22 22 22 21 22 22 22 22 21 21 20 20 20 20 18 18 19 19 17 16 16 15 14 14 15 16 16 14 15 14 13 13 13 13 11 9 8 10 11 11 11 14 14 14 15 14 11 10 12 15 12 11 12 9 12 12 12 13 14 14 14 14 14 15 17 15 15 16 18 18 19 19 19 18 19 19 18 19 18
16 13 16 17 17 16 16 12 9 13 10 12 12 15 14 14 19 20 22 21 22 23 23 23 24 23 23 22 21 19 22 20 20 19 19 19 19 18 18 17 15 16 15 16 15 15 14 13 13 12 12 12 11 10 10 9 12 11 12 12 14 15 15 14 12 11 9 10 11 11 12 10 11 11 12 14 14 15 15 15 15 15 16 17 17 17 17 17 18 18 17 17 17 17 17 19 18
18 15 18 17 16 15 12 10 9 12 12 13 15 11 16 13 17 14 21 22 22 24 25 26 25 25 24 23 23 22 21 21 19 20 20 20 20 19 18 18 16 17 17 15 14 14 14 13 12 11 11 10 11 9 10 11 10 11 12 14 14 14 15 15 14 13 13 9 10 9 9 9 9 10 12 14 15 15 15 15 15 16 15 17 17 17 17 18 17 17 18 18 17 17 17 16 16
13 17 18 17 17 14 9 10 9 11 13 11 11 14 16 16 17 19 18 20 22 26 26 25 26 26 26 26 23 23 22 21 22 20 20 21 21 20 18 18 18 18 16 15 14 14 14 12 11 11 12 11 10 10 10 10 10 9 11 11 13 13 14 14 13 12 12 10 11 9 8 9 10 11 11 12 14 15 15 15 16 16 15 16 17 17 16 17 17 17 18 17 16 15 15 15 16
24 21 22 19 15 13 12 10 10 12 8 14 9 13 15 13 15 16 22 23 27 22 23 24 26 26 26 25 24 24 24 23 22 21 21 21 21 21 20 19 18 17 16 16 15 16 14 12 11 11 11 10 9 9 10 10 9 9 11 11 11 12 13 13 13 13 12 9 11 10 8 9 10 11 11 11 13 14 13 15 15 16 16 15 17 17 17 17 17 16 16 16 18 17 17 15 16
23 19 18 18 15 13 13 12 11 12 14 15 11 12 15 14 18 14 21 13 14 17 21 24 26 28 28 26 26 25 24 23 23 22 22 21 21 22 21 20 19 19 17 17 16 15 14 13 12 11 11 10 9 9 9 10 9 9 9 8 10 10 10 13 12 12 13 13 10 9 9 9 11 12 12 12 14 15 14 15 15 16 18 17 18 17 16 17 16 16 17 17 16 16 16 17 16
17 18 17 15 9 13 8 16 9 12 17 15 11 13 15 21 18 13 17 20 16 16 19 23 26 27 27 27 27 26 25 23 24 23 22 23 24 24 23 21 20 20 19 19 18 16 15 14 13 12 12 11 10 10 9 10 9 9 8 8 8 8 8 9 11 11 8 9 9 10 11 12 12 14 14 14 14 15 15 15 16 17 17 17 16 17 16 17 16 16 17 17 17 18 18 16 18
16 18 14 13 9 10 10 13 11 13 15 13 12 11 16 14 16 15 17 18 19 19 19 17 20 25 26 27 27 27 26 25 25 24 24 24 24 25 24 23 23 22 20 21 19 17 16 14 14 13 12 11 11 10 10 10 10 9 9 8 8 8 8 7 7 9 10 8 9 11 11 11 12 11 13 13 13 15 16 16 16 17 16 16 16 17 17 17 17 17 17 18 17 16 17 16 16
16 11 14 14 14 14 11 17 14 15 16 14 11 17 12 14 15 11 12 13 13 14 16 17 17 19 23 26 27 27 26 24 25 25 24 23 23 23 24 24 22 22 21 21 19 19 18 17 15 15 14 13 12 12 11 11 10 10 10 9 9 8 8 8 8 8 9 10 10 10 10 10 10 11 13 13 13 15 15 16 16 16 16 16 16 16 17 17 16 16 18 16 16 16 16 16 16
9 9 12 12 10 12 15 15 14 14 13 11 15 11 14 17 15 13 12 12 13 12 14 15 19 17 19 24 27 28 27 27 26 24 23 22 21 22 23 23 22 22 21 21 21 20 18 18 16 16 15 14 13 12 12 11 11 10 11 11 10 10 9 9 9 9 8 8 9 10 10 10 11 12 13 13 14 14 15 16 17 18 16 17 18 18 17 18 16 16 16 17 17 16 16 18 17
17 15 13 12 14 16 12 10 8 8 15 9 10 17 16 18 16 10 11 15 14 12 14 17 19 20 18 22 25 26 26 27 25 25 24 22 21 22 23 22 22 21 23 22 21 20 19 18 17 16 15 14 13 13 12 12 11 11 12 12 12 11 11 11 11 9 8 10 10 9 9 11 12 12 14 13 14 15 16 16 17 17 17 17 18 18 18 17 16 17 17 17 18 16 16 17 16
22 13 16 15 11 15 12 12 8 9 12 12 12 17 17 15 15 14 11 13 13 13 15 17 18 20 20 22 25 27 27 26 25 24 23 23 22 22 22 23 21 21 21 21 21 19 19 19 18 18 16 15 15 14 13 12 12 12 12 12 13 13 13 13 10 9 9 9 10 10 10 12 13 13 14 14 15 17 17 17 17 17 17 18 18 18 18 17 16 16 16 17 16 15 15 17 19
15 15 16 17 11 15 14 12 10 14 10 15 11 14 15 14 17 13 13 14 15 14 16 18 20 21 20 21 25 26 26 25 26 25 25 25 23 22 21 20 22 22 20 21 23 22 21 19 20 17 16 16 14 14 12 12 12 12 12 12 12 13 13 12 10 10 8 9 10 11 13 14 14 14 15 14 15 17 16 16 16 16 17 18 18 18 17 17 16 16 17 17 18 18 18 18 18
11 12 14 9 15 17 11 11 15 17 11 9 13 17 17 13 20 13 10 13 15 17 17 18 19 20 20 21 25 28 28 25 26 26 25 25 24 22 22 20 23 23 23 22 21 22 20 19 18 17 15 14 14 14 13 13 13 13 12 11 11 12 11 11 10 10 9 9 12 14 15 15 15 15 15 15 16 16 16 16 16 17 17 17 18 17 17 16 16 18 17 18 18 17 18 18 17
16 16 14 14 11 12 17 12 16 15 13 12 15 17 15 17 16 14 12 13 16 19 20 18 18 18 18 20 24 26 27 26 26 25 25 26 24 22 22 22 23 23 22 21 22 21 21 20 18 18 17 16 16 15 14 13 13 12 11 11 10 10 10 11 10 10 9 11 13 14 15 16 17 16 15 16 17 16 16 16 17 17 17 17 17 17 17 16 18 17 17 17 18 18 18 18 17
14 15 13 14 13 13 14 13 12 11 16 14 17 20 19 20 12 11 13 10 13 15 15 18 18 19 18 20 21 24 26 25 24 24 24 26 24 22 24 24 22 22 23 23 22 21 22 21 21 19 19 18 17 17 16 14 13 12 11 11 9 9 11 11 11 11 12 15 15 15 16 17 17 16 15 17 17 15 15 16 17 17 17 17 18 18 17 17 17 17 17 16 17 19 18 18 17
Wind_Speed
9 5 3 4 5 5 6 5 8 6 4 6 3 5 4 2 2 4 1 3 5 3 2 1 1 1 5 5 7 4 6 6 5 6 2 3 4 7 10 9 7 6 7 8 5 4 8 9 8 10 10 9 9 10 10 9 9 10 10 9 10 9 8 9 9 9 9 9 9 9 9 9 9 9 9 9 8 8 9 6 4 7 7 6 7 7 6 6 6 6 5 5 6 6 6 6 7
4 3 4 4 5 5 5 0 6 4 5 5 3 1 4 2 5 1 2 3 3 2 2 0 1 2 2 2 1 1 7 8 8 7 5 6 5 6 8 9 7 8 7 7 6 6 8 9 11 12 11 10 10 10 10 10 9 10 10 10 9 10 9 9 9 9 9 9 9 8 9 9 9 9 9 9 9 9 8 8 7 7 6 6 6 6 7 8 9 8 6 4 4 4 5 6 5
3 4 5 5 6 7 3 6 7 5 6 7 4 1 4 3 1 2 2 2 1 2 3 3 1 2 2 1 5 5 2 5 8 9 5 2 3 5 9 9 8 8 7 6 6 7 6 9 11 11 10 9 9 9 10 10 10 10 9 10 10 9 9 8 9 9 9 9 9 9 9 9 9 9 9 9 9 8 8 7 7 8 7 7 7 5 6 6 7 2 3 3 3 3 4 5 4
5 4 5 6 6 4 6 4 7 5 6 3 1 5 3 1 4 4 4 4 4 4 5 5 3 2 3 2 4 3 6 4 10 5 4 6 5 4 7 9 8 7 6 5 6 7 8 9 11 11 10 9 9 9 8 9 9 9 10 9 9 9 9 9 9 9 9 9 10 9 9 9 9 9 9 9 9 8 8 8 8 8 8 7 6 5 6 7 7 3 3 1 0 1 3 3 4
5 3 5 6 5 6 5 3 4 3 7 2 2 6 3 3 5 6 7 3 2 2 4 2 1 3 4 7 4 2 4 8 10 9 3 2 2 2 6 8 7 6 6 7 4 7 8 12 12 11 10 9 9 10 9 9 9 8 9 9 9 9 9 9 9 9 9 9 9 10 10 9 9 9 9 9 9 9 9 8 8 8 7 7 6 5 5 6 7 6 4 4 3 3 3 3 3
5 5 4 6 4 5 4 4 6 8 4 3 1 4 4 3 5 7 6 2 1 2 3 3 3 3 3 6 6 4 9 3 3 8 3 0 2 3 6 6 6 6 6 7 7 8 8 12 11 11 9 9 8 7 8 9 9 10 10 10 10 9 9 8 9 9 9 9 9 9 10 9 9 9 9 9 9 8 9 9 8 8 7 7 6 6 5 5 4 4 3 3 3 3 3 3 3
6 7 5 4 3 5 5 5 4 3 5 3 3 4 2 5 5 4 4 3 1 1 2 3 0 4 5 5 9 9 11 5 5 3 4 6 5 4 6 6 7 8 8 7 9 7 9 10 9 8 9 8 8 9 9 9 10 10 9 10 9 9 8 8 9 9 9 9 9 9 9 9 9 9 9 9 9 8 8 8 8 8 7 7 7 7 6 6 5 5 4 3 3 3 3 3 3
1 7 6 7 4 6 6 3 2 4 7 3 4 2 3 5 3 3 2 3 3 2 4 3 4 4 5 1 3 8 11 12 9 3 3 5 6 6 6 6 7 7 8 7 8 7 9 10 9 9 10 9 9 9 10 10 10 11 10 10 9 8 8 9 9 9 9 9 9 9 9 9 9 9 8 8 8 8 8 8 8 8 8 7 7 6 6 5 5 4 4 3 2 2 3 2 2
7 5 2 4 4 3 3 5 2 2 4 3 4 5 3 1 1 2 3 0 0 1 2 3 4 4 3 8 8 7 8 9 6 5 6 7 7 7 4 5 7 7 7 7 7 7 7 10 11 11 11 11 11 11 11 11 10 10 9 8 7 7 8 8 8 8 8 9 9 9 9 8 8 8 8 8 8 8 8 8 8 7 7 7 6 6 5 4 4 4 3 2 3 1 1 1 1
6 6 7 5 1 6 4 4 6 4 3 4 1 5 3 2 2 2 3 1 3 1 5 2 3 6 6 8 7 5 6 7 8 9 7 8 8 8 7 7 7 7 7 6 6 6 7 10 11 11 11 11 11 10 9 8 8 8 7 7 7 7 7 8 7 7 8 8 8 8 7 8 8 9 9 8 8 7 7 7 7 7 7 6 6 5 5 4 4 4 4 3 2 2 2 3 2
6 3 1 5 6 2 6 4 2 6 4 4 4 3 2 2 2 1 2 4 3 3 2 1 4 4 7 7 6 2 1 6 10 9 8 8 7 8 8 7 7 6 6 6 6 6 6 7 11 11 11 11 11 10 9 7 7 7 7 7 6 7 6 6 7 7 7 6 6 7 7 7 8 9 8 8 8 8 7 7 7 7 6 6 6 5 5 5 5 4 4 4 4 3 3 4 4
4 5 5 5 4 4 2 2 3 5 4 4 5 3 2 1 1 3 1 3 1 1 2 4 2 2 5 5 3 3 5 8 9 6 8 7 8 7 7 6 6 6 6 6 6 6 6 5 6 9 10 9 10 9 7 6 7 7 7 7 7 6 6 6 6 6 6 6 5 6 7 7 7 8 8 7 8 8 8 7 7 7 7 6 6 6 6 6 5 5 5 4 3 3 3 3 3
2 3 4 5 2 3 5 3 4 3 5 5 4 4 2 1 3 2 2 1 1 3 5 5 1 2 5 3 4 6 7 6 6 6 6 6 7 7 7 6 6 6 6 6 6 6 6 6 6 6 7 7 8 7 6 6 7 7 7 7 6 6 5 4 5 5 4 5 4 5 7 7 7 7 7 7 7 8 7 8 8 7 8 8 7 7 7 6 6 5 6 5 4 3 2 2 2
3 4 2 1 1 1 5 2 4 6 5 5 4 4 2 2 1 4 2 2 1 3 4 4 2 2 6 7 5 4 6 6 6 6 6 7 6 7 8 7 7 6 6 6 6 6 6 6 5 5 5 5 5 6 8 8 8 8 8 6 5 5 6 5 5 5 4 4 5 6 6 7 7 7 7 8 8 8 8 9 9 9 9 9 8 8 8 7 7 6 5 5 4 3 3 2 2
1 2 3 1 4 5 3 6 4 5 5 4 5 4 4 3 2 1 3 3 5 3 2 3 4 8 3 4 5 3 6 6 6 6 7 6 7 8 8 7 6 6 6 6 6 6 6 5 5 5 5 4 5 5 5 7 9 10 10 9 8 8 8 7 7 7 6 7 6 6 6 6 7 8 8 9 10 10 9 9 10 10 10 10 10 9 8 7 6 5 4 4 3 2 2 1 2
1 5 2 4 3 6 6 3 1 5 5 3 5 3 4 4 1 3 2 5 5 3 3 3 7 4 7 10 8 7 8 7 6 7 8 8 7 7 7 6 5 6 6 6 6 6 6 5 4 4 5 5 5 5 6 6 8 9 9 9 8 8 8 7 7 7 7 7 6 5 3 4 5 7 7 8 10 10 11 9 11 11 11 10 10 10 9 8 7 6 6 4 3 3 2 3 3
2 5 6 2 5 5 7 3 3 3 5 3 5 5 6 5 1 1 1 4 3 5 5 6 6 4 10 8 9 8 8 8 8 8 8 6 6 5 5 5 5 6 5 6 6 5 6 5 5 4 5 6 6 5 4 5 4 3 7 7 8 8 7 7 5 4 3 6 4 4 1 4 5 5 5 6 7 9 11 10 10 11 10 9 9 9 8 8 7 6 6 5 3 3 5 5 6
4 5 4 5 2 1 5 4 3 3 3 4 4 4 5 5 3 3 4 4 3 5 6 7 9 9 8 5 6 7 7 8 7 6 5 5 4 5 4 4 4 5 5 5 6 5 4 4 5 5 5 5 4 3 3 2 3 3 5 5 5 4 5 4 5 4 5 4 3 2 4 4 4 5 5 6 6 7 9 10 10 9 10 8 6 6 6 6 6 6 5 4 4 6 8 6 6
5 2 4 5 4 6 5 4 4 4 2 2 2 1 4 1 1 3 6 6 4 6 6 5 8 7 6 6 6 7 7 7 6 6 6 6 5 6 5 5 5 5 5 4 5 4 3 4 4 5 5 4 4 3 2 3 3 3 4 4 3 4 5 5 5 5 6 6 6 5 4 4 5 6 6 6 5 8 8 8 7 7 8 8 6 2 2 5 3 2 3 4 6 10 6 2 3
2 6 5 3 4 4 6 4 4 3 1 2 2 2 1 4 3 3 4 4 5 4 3 7 4 2 6 4 7 7 7 8 7 7 7 7 7 6 6 6 5 5 5 4 4 4 3 4 5 5 5 3 2 3 2 3 3 4 4 4 4 4 4 5 6 6 6 6 5 5 4 4 4 4 5 3 2 3 4 5 4 3 4 6 9 3 3 3 6 8 4 6 7 4 5 5 6
2 4 4 3 2 2 5 4 4 2 2 1 2 3 2 2 2 2 7 7 5 4 7 5 7 7 7 3 8 7 7 8 7 7 7 7 8 6 5 5 5 4 4 3 4 4 4 4 4 4 3 3 2 2 3 3 4 4 4 5 5 5 5 6 5 6 6 6 6 5 5 4 4 4 5 5 5 5 5 5 4 5 5 6 7 5 6 6 5 6 4 4 5 4 5 5 5
2 4 4 2 0 1 4 4 3 3 2 1 3 3 2 5 2 7 11 3 3 3 5 8 6 5 9 8 7 7 8 8 8 8 8 8 8 7 6 5 5 4 3 3 4 4 4 3 3 3 4 3 3 3 3 4 4 5 5 5 5 6 6 6 6 6 6 6 6 5 4 4 5 5 5 6 5 5 5 5 5 5 6 6 6 6 6 6 6 6 6 6 5 4 5 5 5
2 4 4 4 3 3 4 4 5 2 2 1 4 1 2 3 2 5 5 4 4 2 11 4 5 5 7 6 6 7 8 8 8 8 9 9 8 6 6 5 4 3 3 4 3 4 4 4 3 3 4 3 3 3 4 5 5 6 6 6 6 6 6 6 6 6 6 6 6 6 5 5 5 5 5 6 6 6 6 6 6 6 6 6 6 6 7 6 6 6 6 6 6 5 5 6 5
3 5 3 5 5 6 3 6 3 4 2 4 3 4 4 5 6 2 6 6 5 7 9 7 8 7 6 7 6 8 7 9 8 8 8 9 8 6 5 5 4 3 4 3 3 3 4 4 4 4 3 3 4 5 5 5 6 6 6 6 7 7 7 6 6 6 5 6 6 5 5 5 5 5 6 6 6 6 6 6 6 7 7 7 6 7 7 6 6 6 6 6 6 6 5 5 5
4 6 5 6 6 6 5 5 6 5 5 4 4 4 1 1 4 2 5 5 4 10 7 7 7 8 7 7 8 8 8 8 8 8 7 8 7 6 4 4 4 3 4 3 4 5 5 4 5 5 4 5 5 5 6 6 6 6 6 6 7 7 6 6 6 5 5 5 6 7 7 6 6 6 6 6 6 6 6 7 7 7 7 7 7 7 7 7 6 6 6 6 5 6 5 4 6
4 7 5 5 6 6 5 6 5 5 4 2 3 5 3 2 9 5 5 8 8 9 9 8 6 7 9 7 7 8 9 9 8 8 8 7 7 7 6 4 3 4 4 4 4 4 5 5 6 6 6 6 5 5 6 6 5 6 6 6 6 6 6 6 5 5 5 5 6 7 7 7 6 6 6 6 6 6 6 7 6 7 7 7 7 7 7 7 6 6 6 7 7 7 6 5 6
6 7 6 6 7 6 5 6 4 4 5 1 3 5 4 4 4 4 7 8 9 10 9 7 5 6 8 8 8 8 9 8 8 7 7 7 6 6 5 5 4 5 4 4 4 4 4 5 6 7 7 6 5 6 6 6 6 6 6 6 6 6 6 5 5 5 5 6 6 7 7 7 7 7 7 7 6 6 6 6 6 6 6 7 7 7 7 7 6 6 7 6 6 6 6 5 5
9 9 9 8 7 7 6 4 3 3 5 2 5 4 7 4 3 6 9 7 9 11 9 5 7 9 9 8 8 7 7 7 7 7 8 7 6 6 5 4 5 5 4 5 4 4 5 7 7 7 7 6 6 6 5 5 5 6 6 6 6 6 6 6 5 6 6 6 7 7 7 7 7 7 7 6 6 6 6 6 6 6 6 6 6 7 7 6 7 7 7 6 6 5 5 5 5
9 6 6 7 5 6 4 4 3 1 6 2 7 6 5 5 5 7 9 7 9 12 11 9 8 7 8 8 7 7 8 7 6 7 6 5 5 4 6 5 4 4 4 5 5 5 6 7 7 7 6 6 6 6 5 5 5 5 6 6 6 5 6 5 5 6 5 5 6 7 7 7 6 6 5 7 6 5 6 6 6 7 7 6 6 7 7 7 7 7 7 6 6 5 5 5 5
6 3 4 7 6 6 4 3 3 3 6 0 2 2 4 8 8 4 8 8 9 10 11 12 8 8 8 8 7 7 7 6 7 7 6 6 6 6 6 5 4 3 4 4 4 5 4 4 5 5 5 6 5 5 4 5 5 5 5 5 5 6 6 5 5 5 5 5 5 7 7 7 6 6 6 6 6 5 6 6 7 7 7 7 7 7 7 7 7 9 9 7 7 7 6 6 5
3 4 5 2 5 5 5 2 1 2 5 3 4 1 5 7 7 7 6 8 9 10 9 9 9 8 8 8 8 7 6 6 7 7 6 6 6 6 6 5 5 4 3 4 4 5 5 5 5 4 5 6 5 6 6 6 5 5 5 5 6 6 5 5 5 5 4 5 5 6 7 7 7 7 6 6 6 6 6 7 7 7 7 8 7 7 7 8 8 9 9 9 8 8 8 6 6
5 3 4 3 2 7 6 1 2 2 5 2 1 5 6 8 7 7 5 6 6 9 9 9 9 7 7 7 9 8 7 7 7 7 6 7 6 6 6 5 4 3 3 4 4 4 5 5 5 6 5 5 5 6 6 6 5 5 5 5 5 6 5 5 5 5 6 5 5 6 7 7 7 7 7 7 6 6 6 7 7 7 8 8 8 8 8 9 9 9 10 10 9 10 9 8 6
6 6 4 3 2 6 6 3 3 2 1 2 2 4 6 7 8 6 4 7 7 8 8 8 8 8 7 7 7 8 8 8 7 7 7 6 6 6 6 5 3 2 2 2 3 4 5 6 5 6 6 6 6 7 6 6 5 5 5 5 5 6 6 6 5 5 6 6 6 6 6 6 7 7 6 7 6 6 6 7 7 8 8 8 8 9 9 9 10 9 10 11 10 10 10 10 8
4 1 3 3 2 4 3 6 2 1 4 2 1 1 9 9 9 8 6 5 7 7 8 8 7 7 7 7 7 8 7 8 8 7 7 7 7 6 6 5 3 3 2 2 2 3 5 5 5 5 5 6 5 5 5 4 4 4 4 5 6 6 6 6 5 6 6 6 6 6 6 6 6 7 6 6 6 6 7 7 8 8 8 8 8 8 9 9 9 9 9 10 10 10 10 11 9
4 2 4 4 4 3 6 2 5 4 2 1 4 5 7 8 9 8 7 7 7 9 8 8 8 7 7 7 8 8 7 7 8 7 8 7 7 6 5 4 3 3 2 3 3 3 4 5 5 6 5 6 5 5 5 5 5 4 4 3 4 5 5 6 6 6 6 6 6 6 6 5 6 7 7 7 6 6 7 7 7 8 7 8 8 8 8 9 9 10 10 10 9 9 9 10 10
7 3 5 4 3 4 4 5 3 2 0 2 2 4 6 6 7 8 8 8 8 8 8 7 8 7 7 7 7 6 7 8 7 8 8 7 6 5 4 4 4 3 3 3 4 4 4 5 5 5 4 4 5 4 3 3 2 3 4 4 5 5 6 6 6 6 6 6 6 6 7 6 7 6 7 7 7 6 6 7 7 7 7 7 7 8 8 8 8 9 9 10 10 9 10 10 11
6 5 3 5 5 6 5 4 4 1 2 4 3 5 6 7 6 8 8 7 8 9 9 8 8 7 7 7 7 8 8 8 8 8 7 7 7 5 4 4 4 5 4 4 4 5 5 5 5 5 4 3 2 2 2 3 3 3 4 4 4 4 4 5 5 6 6 6 7 7 7 7 7 7 7 7 6 6 6 6 7 7 6 6 6 7 7 8 8 8 8 8 10 9 8 10 12
4 5 4 4 1 5 4 4 2 2 5 5 1 3 6 7 7 7 8 8 9 10 10 9 9 8 7 8 8 8 7 8 9 7 7 6 6 6 5 4 5 5 4 5 5 5 5 5 5 4 3 2 2 2 2 2 3 5 4 5 5 5 5 5 5 5 5 6 6 7 6 6 7 7 7 7 7 7 6 6 6 6 6 6 6 7 7 7 8 8 8 8 9 10 9 11 10
3 4 3 4 5 6 6 3 1 1 4 6 4 3 5 6 6 6 7 8 8 9 9 9 10 9 8 7 8 9 8 8 8 7 7 6 6 6 5 5 5 5 5 6 6 6 6 6 5 4 3 3 3 2 2 4 3 4 4 4 4 5 5 5 5 5 5 6 5 6 6 6 7 7 7 7 6 6 5 5 5 5 6 6 7 7 7 9 9 10 10 9 9 10 9 10 9
2 3 1 6 5 4 5 5 3 3 2 4 6 4 5 5 5 6 6 7 6 7 8 8 8 9 9 9 8 8 9 9 9 9 8 7 6 5 6 6 6 5 5 6 6 6 5 5 5 4 4 4 4 4 4 4 4 4 4 4 5 7 5 4 3 3 5 5 6 6 6 6 7 8 7 7 6 5 5 6 6 6 6 6 7 8 9 9 9 9 9 9 9 10 10 10 10
5 5 4 3 3 2 5 7 5 4 4 2 6 4 6 7 8 7 8 8 7 8 8 8 8 7 8 8 8 8 9 10 9 10 9 8 7 7 6 7 6 5 6 6 6 5 5 7 6 5 5 5 4 4 3 3 4 4 4 4 4 5 4 4 4 5 4 5 5 6 6 5 6 6 6 6 6 6 6 5 6 6 6 7 7 7 8 9 10 10 10 9 10 9 10 9 9
4 5 5 5 4 2 5 7 7 6 6 6 5 5 5 9 10 9 9 9 10 9 10 11 10 10 9 9 9 9 8 8 10 10 10 9 8 7 8 7 5 6 7 7 7 7 7 7 7 6 5 5 4 4 3 4 5 5 5 4 5 5 6 5 5 5 5 5 6 4 5 5 5 5 6 6 6 6 6 6 6 7 7 6 6 7 8 8 9 10 9 8 9 9 9 9 9
1 6 3 5 5 4 4 5 6 1 2 6 3 5 4 7 9 10 11 11 11 10 12 12 11 11 10 9 9 9 10 10 9 9 10 10 9 8 8 7 7 7 7 7 8 7 8 7 6 6 6 5 4 3 3 4 5 5 5 7 7 5 6 5 4 4 5 6 5 5 4 3 4 5 5 5 6 6 6 6 7 7 8 7 7 7 8 9 8 9 8 8 8 8 9 8 9
5 6 5 5 6 7 5 2 2 3 2 4 4 4 4 3 7 10 12 11 12 13 13 13 12 13 12 11 11 10 11 11 10 10 10 10 10 9 9 8 7 7 8 7 7 7 7 6 6 6 5 5 4 4 4 3 5 5 6 6 6 7 6 6 5 4 3 4 4 5 5 3 4 4 4 6 6 7 7 7 7 7 7 8 7 8 8 8 8 8 8 9 8 7 8 8 8
6 7 7 5 6 6 3 2 2 3 2 4 4 3 5 3 6 6 11 11 12 13 14 14 14 14 14 13 12 12 12 12 10 10 11 11 11 10 9 9 8 9 8 7 7 7 7 6 5 5 5 4 4 4 4 4 4 5 6 6 6 6 7 6 6 5 5 3 4 3 3 3 3 4 5 6 7 7 7 7 7 7 7 8 7 7 7 8 9 8 8 8 8 7 7 7 7
5 7 4 4 5 5 1 2 1 2 3 4 2 0 4 4 7 7 8 9 11 13 14 14 15 15 14 14 13 13 12 11 12 11 11 11 11 11 10 9 10 9 8 8 7 7 6 5 5 5 6 4 4 4 4 4 4 3 5 5 6 6 6 5 6 5 5 4 4 3 2 3 3 4 5 5 6 7 6 7 7 7 7 7 7 7 7 7 7 7 7 7 8 8 6 7 7
11 8 7 7 6 4 4 2 1 2 1 4 1 2 5 1 5 5 8 8 9 9 11 12 14 15 15 14 14 13 12 12 11 11 11 11 12 12 11 9 10 9 8 8 7 8 7 5 5 6 6 4 3 4 4 4 3 3 4 5 5 6 7 6 6 6 5 4 5 3 3 3 3 4 4 3 6 6 6 6 6 7 6 6 7 7 7 7 6 6 7 7 8 8 7 7 7
11 6 5 5 5 3 4 3 3 3 5 4 1 3 5 4 6 4 5 5 5 5 9 13 15 16 15 14 14 14 13 12 12 11 12 12 12 12 11 11 11 11 9 9 8 7 7 6 5 5 5 4 4 3 3 4 3 3 3 3 4 4 5 5 5 5 6 6 4 3 2 2 3 4 4 4 5 5 5 5 6 7 7 7 7 7 7 7 6 6 6 7 7 7 8 8 7
6 3 5 5 1 3 1 5 1 3 5 5 1 2 5 6 2 4 7 6 6 5 4 9 13 16 16 16 15 13 13 13 12 11 11 12 12 13 13 12 12 11 10 10 9 8 7 7 6 6 6 5 4 4 3 4 3 3 2 2 3 2 2 3 5 4 2 3 3 3 3 3 4 4 5 5 5 6 5 6 6 6 6 7 7 7 7 7 6 5 7 7 7 8 8 8 7
6 5 3 4 1 2 2 3 2 3 5 3 1 2 5 2 4 3 3 4 4 6 6 5 7 13 15 15 15 14 13 13 12 12 12 12 12 13 13 13 12 11 11 11 10 9 8 6 7 6 6 5 5 4 4 4 4 3 3 2 2 2 3 2 1 3 3 1 1 2 3 4 4 4 4 5 5 5 6 6 7 7 7 7 7 6 7 7 7 6 7 7 7 7 8 7 7
4 3 4 4 3 4 2 5 4 4 4 4 3 5 3 4 0 1 3 3 1 3 5 7 7 7 12 14 15 15 15 14 13 12 12 12 12 13 13 13 12 12 12 11 10 10 9 8 8 7 7 6 6 5 4 4 4 4 4 3 2 1 2 2 1 1 1 2 2 3 3 4 3 4 5 5 5 5 6 6 6 6 6 6 7 6 6 6 7 6 7 7 6 6 7 7 6
1 1 3 4 2 2 4 5 4 5 3 3 2 2 4 5 5 4 3 3 5 4 6 7 9 8 10 13 14 15 14 14 13 13 13 12 12 13 12 12 12 11 12 11 12 10 9 9 9 8 8 7 6 6 5 4 3 3 4 4 4 3 2 1 1 1 0 1 2 3 2 2 3 4 5 4 4 5 5 6 6 7 7 7 7 7 7 6 7 6 6 7 7 6 6 8 7
5 5 2 2 4 4 0 3 1 2 5 2 2 3 3 7 5 2 3 6 6 4 5 8 10 10 9 11 13 14 14 14 13 13 12 13 12 12 12 12 11 11 12 12 12 11 11 10 9 9 8 7 7 6 6 5 4 4 4 4 4 4 4 3 2 2 2 1 1 1 1 3 4 4 4 4 5 6 6 6 6 6 6 6 7 7 7 7 6 6 6 7 7 6 6 7 7
4 2 3 3 3 6 2 3 1 2 3 1 2 6 3 2 0 3 3 4 5 5 6 8 10 11 11 11 12 14 14 14 14 13 13 13 12 13 12 12 12 12 12 12 12 11 10 10 10 10 9 8 8 7 6 5 5 4 4 4 5 5 4 4 3 4 3 2 1 1 2 3 4 4 4 4 5 6 6 6 6 6 6 6 6 6 7 7 6 6 6 7 7 6 6 5 7
5 6 4 6 1 4 4 2 2 3 2 3 2 4 1 5 6 2 5 4 5 5 7 9 11 11 11 11 14 14 14 13 13 14 13 13 12 12 11 12 12 12 12 12 12 12 11 11 10 9 9 9 8 6 6 5 5 4 3 4 4 5 5 4 3 3 3 2 1 2 4 5 5 5 5 5 5 5 5 5 5 6 5 6 6 6 6 6 7 6 6 6 7 6 6 6 7
2 2 4 1 4 6 2 3 5 4 3 2 4 6 3 4 7 5 2 4 5 6 7 8 9 10 9 10 13 15 14 13 13 13 13 13 12 12 13 12 12 13 13 12 12 12 12 11 10 9 8 7 7 7 6 6 5 5 4 3 4 3 3 4 3 3 2 2 3 4 6 6 6 5 6 6 5 6 6 5 5 5 5 6 6 6 6 7 6 6 6 6 6 7 7 7 7
6 5 4 4 3 3 4 2 4 4 4 3 4 3 3 6 6 5 3 1 5 6 7 6 7 9 9 10 12 14 14 13 13 13 13 14 13 12 13 12 12 12 12 11 11 12 11 10 10 10 10 9 9 7 7 6 5 5 5 4 2 3 3 3 3 3 2 3 5 5 6 6 6 6 6 6 6 6 6 5 6 5 6 6 6 6 6 6 6 6 6 6 7 8 8 7 7
3 2 3 3 3 4 3 0 3 3 4 4 4 4 6 6 3 2 2 1 3 6 6 6 8 9 9 10 11 13 13 13 13 13 13 13 13 13 13 12 11 11 12 13 11 11 12 12 10 10 10 9 9 8 8 7 6 5 5 3 3 3 4 4 4 4 5 6 6 6 7 7 7 7 6 6 7 5 5 5 5 6 6 6 6 7 6 6 6 6 6 5 7 8 8 8 8
Wind_Direction
268 243 297 265 244 240 231 189 243 164 241 232 241 197 105 243 25 215 157 150 215 51 22 314 279 186 330 6 16 60 31 349 38 309 50 94 40 122 103 96 87 110 90 88 93 109 83 83 81 73 71 63 63 59 56 56 60 63 61 62 61 65 63 60 58 59 60 59 59 61 63 62 60 60 63 63 59 66 83 104 83 70 63 55 64 62 69 72 64 81 87 74 65 79 76 75 65
248 278 245 230 229 217 195 288 267 232 226 250 206 290 77 113 229 14 38 332 13 77 121 154 144 66 352 280 46 275 75 44 34 91 86 81 83 18 85 93 95 87 80 80 86 89 89 75 65 61 66 62 61 58 57 58 57 59 61 60 61 60 59 64 66 64 63 60 61 60 64 62 59 57 57 56 55 54 51 61 73 79 75 68 63 65 71 65 62 22 28 60 81 74 77 79 74
279 264 194 209 197 247 72 223 246 226 245 240 128 219 97 198 102 114 95 166 171 138 156 153 137 205 183 243 202 341 80 72 69 63 78 43 120 66 80 77 77 77 82 78 88 91 92 67 61 62 63 66 59 58 59 60 59 60 64 65 61 61 62 65 63 62 62 61 59 58 59 61 60 59 59 57 58 58 57 56 65 73 73 74 75 71 83 87 82 57 360 35 46 40 72 72 82
274 261 266 193 176 245 219 193 259 258 242 291 130 129 195 88 110 133 145 135 137 179 184 158 212 59 278 215 49 160 68 64 41 20 57 19 41 50 72 90 85 90 84 79 51 64 58 70 65 63 63 55 53 56 61 65 68 64 64 61 65 63 64 63 65 65 63 63 62 61 63 62 62 62 60 62 64 64 62 62 61 65 74 78 95 91 83 107 115 148 129 38 177 151 91 91 92
246 196 251 229 253 197 236 234 263 256 258 165 298 92 140 168 130 145 134 120 117 238 200 179 179 101 350 29 15 313 33 93 60 66 102 49 89 49 95 92 93 89 88 96 109 83 74 70 70 66 65 61 63 63 68 73 69 70 71 67 63 67 64 63 63 63 63 61 61 60 60 59 60 59 60 63 65 66 70 70 71 67 69 74 75 82 95 97 118 138 153 163 179 180 118 116 110
217 195 174 245 269 35 260 213 217 231 24 350 264 110 123 123 141 142 118 106 41 288 336 236 331 153 119 31 30 51 5 349 41 61 73 355 130 120 95 101 104 93 90 78 74 70 68 70 70 71 72 70 65 65 61 73 74 71 69 70 67 64 64 63 63 63 62 61 59 59 60 59 57 55 57 58 61 66 70 70 66 64 62 62 67 69 71 80 85 98 96 84 92 92 125 115 121
171 182 166 177 163 231 250 243 223 230 102 301 26 110 122 116 122 145 129 139 94 316 8 344 2 157 124 125 90 53 35 44 72 63 111 132 130 172 124 109 96 85 75 76 76 73 72 76 72 73 78 77 70 71 67 67 70 69 67 65 64 65 62 61 61 61 62 61 62 63 62 61 59 59 58 59 62 66 67 66 65 63 60 55 51 50 51 53 57 63 65 67 92 92 105 118 111
248 256 156 212 148 222 221 215 250 243 111 280 47 86 129 127 145 185 152 253 107 274 86 57 4 342 82 105 80 53 59 58 87 68 79 107 112 97 71 89 90 83 83 81 83 73 76 72 74 75 75 74 72 71 71 66 63 60 59 59 60 62 63 60 60 60 61 62 63 63 63 63 61 60 59 58 59 60 61 61 60 61 61 55 54 51 45 47 49 54 63 82 97 113 104 130 118
172 256 154 250 206 230 215 224 108 28 89 165 129 37 26 54 19 273 270 105 26 95 103 31 25 268 87 88 68 90 89 109 114 117 105 109 105 89 90 82 87 89 85 85 82 97 80 76 77 74 72 70 67 63 61 60 60 61 61 64 66 64 61 59 56 58 59 60 60 59 59 60 61 61 59 55 53 54 56 56 58 58 57 55 53 51 47 41 39 43 44 42 71 89 68 76 121
151 263 168 257 111 206 212 160 225 127 110 101 117 141 148 133 160 284 317 277 29 3 75 283 339 81 123 79 106 60 91 115 114 105 92 100 93 100 95 86 88 85 81 85 93 89 79 72 67 71 74 78 77 74 71 71 73 73 69 65 64 62 62 60 58 56 54 56 58 62 63 60 58 55 52 53 54 53 50 52 51 54 53 52 48 46 43 37 28 23 9 13 26 30 2 349 360
158 223 8 216 210 214 232 147 181 149 149 150 153 120 131 193 260 270 282 323 51 352 85 296 158 105 96 78 67 63 172 105 98 92 126 110 110 103 97 81 75 80 93 91 88 85 83 75 72 62 65 69 71 71 70 70 72 75 80 72 65 62 57 60 65 60 56 56 57 56 53 54 53 50 47 50 52 52 48 43 41 42 42 42 41 34 28 25 24 18 15 6 0 345 350 344 340
156 213 189 227 222 254 167 97 162 110 133 157 142 132 134 194 260 264 219 255 85 130 19 339 47 292 101 106 103 151 145 83 86 87 98 108 102 93 92 92 87 85 79 86 83 84 82 85 85 83 71 62 62 61 62 63 70 72 74 72 62 57 57 60 61 60 53 54 51 48 57 54 56 56 50 50 56 53 50 47 43 40 38 34 32 30 22 15 15 9 14 18 6 355 343 327 327
241 211 210 239 121 246 72 233 120 116 165 153 123 89 33 187 264 349 335 323 65 269 88 27 66 251 147 102 105 117 110 82 102 111 109 99 96 95 94 93 90 83 87 81 82 79 79 80 82 80 88 108 83 64 62 70 73 72 65 64 60 57 68 58 52 57 50 53 53 55 58 58 59 59 58 57 57 56 50 47 42 36 35 29 20 17 17 13 7 2 15 8 6 3 343 347 320
231 229 221 195 278 210 201 63 129 204 150 106 97 121 128 256 67 337 319 246 74 24 53 0 286 78 91 120 95 83 92 106 107 103 98 97 99 99 99 95 91 83 77 79 77 83 86 93 92 93 104 100 102 111 83 69 75 73 66 55 58 53 60 59 48 45 44 53 58 63 60 60 58 67 63 59 57 52 49 41 33 28 24 20 11 8 9 5 359 357 3 360 351 359 11 326 331
240 206 246 103 164 221 100 219 171 232 98 172 111 150 145 94 290 301 315 301 82 13 31 51 1 246 159 210 125 123 118 121 127 121 107 103 103 102 96 93 95 100 95 85 87 89 88 92 84 86 78 79 88 81 90 79 69 76 73 66 58 53 52 50 46 44 49 44 46 57 67 71 74 66 73 59 51 45 35 43 34 35 35 33 29 26 26 22 13 9 355 352 328 341 324 316 255
113 226 243 197 153 260 141 250 126 253 113 141 127 146 171 109 316 269 60 341 91 67 321 89 37 18 80 92 129 133 130 132 135 126 118 115 111 105 106 107 107 103 100 96 90 75 71 69 80 79 67 66 70 77 74 80 72 69 70 70 63 56 53 54 52 47 45 36 48 41 49 88 84 72 64 63 58 54 52 46 46 44 42 39 36 35 32 28 28 28 22 5 2 316 308 260 232
211 277 209 222 171 245 97 247 191 274 94 122 144 181 199 171 172 302 100 235 192 73 68 38 62 57 76 101 116 131 127 131 138 138 128 134 136 123 130 136 128 107 88 78 66 68 66 70 72 80 67 62 63 72 81 76 73 117 105 90 80 63 57 58 57 70 52 69 34 44 11 45 60 57 61 64 69 64 52 53 47 46 42 39 39 37 31 28 24 21 20 10 340 322 264 249 222
232 233 289 207 345 242 46 334 337 32 259 128 175 188 231 210 173 147 195 170 123 110 97 94 82 82 96 75 104 116 120 126 134 135 126 125 129 125 115 105 101 86 92 85 67 64 81 80 69 57 76 65 72 74 76 76 92 67 64 69 51 63 65 67 64 43 44 49 87 56 36 39 43 54 53 55 61 62 65 50 49 45 38 30 26 27 24 19 15 14 6 356 303 269 261 246 185
272 279 259 342 27 46 351 5 322 293 15 66 119 195 256 343 224 143 228 153 155 120 96 120 110 92 67 119 132 120 117 108 114 107 105 102 97 94 93 95 89 99 95 93 82 65 71 80 68 73 71 79 89 90 81 81 69 55 61 56 81 61 58 51 48 47 42 46 39 42 46 53 50 57 54 52 61 80 67 49 47 46 40 24 1 331 27 11 324 341 348 313 283 259 254 354 332
57 296 281 60 34 63 33 357 357 344 321 196 167 117 259 77 248 130 292 187 176 182 137 135 124 69 115 163 110 109 102 104 100 100 98 96 93 86 82 85 87 82 72 72 86 72 66 72 76 80 82 78 64 70 64 65 59 52 40 42 41 46 47 45 48 36 42 38 43 42 48 46 49 68 79 73 50 32 86 98 77 77 71 46 346 324 215 88 267 208 193 272 256 0 0 346 0
69 261 316 27 49 276 48 360 11 3 318 181 82 90 164 165 245 207 217 221 166 95 45 24 92 131 113 144 114 115 109 105 105 105 106 104 87 80 86 78 75 74 73 88 91 85 77 78 96 91 86 81 79 78 67 54 55 57 44 42 38 38 41 37 38 43 40 29 37 41 39 33 36 39 29 28 23 25 24 20 25 25 21 24 357 13 3 0 351 358 358 328 6 4 7 358 1
90 33 34 21 222 57 52 38 17 24 20 84 126 206 120 326 340 347 30 17 1 16 119 112 152 161 142 146 125 123 121 118 115 116 112 100 96 99 95 96 95 85 91 78 80 95 80 92 92 92 94 84 71 76 68 69 52 52 48 41 39 41 41 43 40 40 34 29 22 28 25 31 27 38 33 26 28 25 23 23 21 21 20 24 5 15 9 4 358 4 360 357 358 3 352 6 4
238 96 63 44 18 58 38 49 45 324 85 188 110 101 102 231 172 130 184 148 162 323 101 138 131 95 100 104 121 113 112 107 104 105 108 107 106 103 104 104 105 105 109 100 109 90 100 107 105 95 94 96 85 79 77 71 64 57 52 44 39 41 42 38 41 38 41 33 27 23 17 26 32 33 34 30 29 25 24 17 19 18 13 19 18 4 6 6 359 0 2 355 350 357 0 0 348
322 110 94 64 66 79 71 70 79 63 34 58 69 128 210 199 177 134 141 137 118 53 96 141 120 121 119 120 111 109 107 104 101 102 101 102 103 98 96 98 88 102 98 111 104 113 115 120 116 127 116 109 101 86 77 75 70 69 60 60 51 43 41 42 41 39 41 41 29 28 22 20 27 29 30 33 30 25 22 18 12 14 9 9 12 5 3 0 0 355 357 353 348 345 352 359 345
116 126 121 104 79 71 70 66 76 88 82 105 158 176 183 333 61 118 96 55 89 112 117 114 115 113 125 121 113 110 107 105 102 95 96 98 100 100 95 101 120 116 114 114 113 110 110 119 131 121 113 97 84 78 77 71 67 61 59 58 55 44 43 41 33 32 32 44 37 29 25 22 20 28 24 24 24 20 17 15 11 13 10 8 2 7 3 354 352 357 347 344 351 336 336 10 335
67 104 128 116 94 84 74 87 71 68 92 114 124 73 86 95 118 66 105 84 104 121 108 113 119 124 118 125 122 115 110 104 105 101 97 102 110 119 121 120 122 109 111 118 106 92 101 118 111 107 96 88 88 84 74 71 70 71 62 52 48 42 41 36 26 34 34 32 39 28 28 24 21 18 21 11 15 15 15 14 12 14 15 9 3 4 0 352 350 351 347 343 343 333 334 348 326
117 115 109 101 93 89 73 79 89 89 80 185 121 112 87 68 291 109 98 117 127 116 115 106 111 126 124 115 114 110 110 112 106 111 119 117 117 109 115 116 114 116 126 106 88 89 101 108 103 101 98 99 88 79 77 75 66 57 51 49 42 34 25 22 30 31 36 39 34 28 25 27 17 24 14 10 11 13 18 16 18 12 16 13 6 2 359 351 352 349 351 343 344 331 328 326 324
117 119 107 97 96 86 105 112 113 188 90 81 108 92 129 149 92 89 114 119 126 117 113 119 129 123 114 114 108 108 112 120 129 131 125 133 128 131 131 123 119 118 109 97 94 104 107 99 101 99 99 94 91 90 88 79 69 64 53 49 42 33 22 18 29 33 35 37 30 28 30 25 21 27 17 12 14 22 19 16 21 17 16 13 10 3 3 358 2 359 0 349 352 330 329 336 323
128 138 121 109 118 102 81 63 91 219 107 80 19 122 85 64 80 105 113 134 132 125 126 123 111 118 116 116 125 134 125 134 141 124 107 99 104 117 112 110 114 111 90 91 96 103 104 106 105 106 105 100 95 89 84 82 74 64 56 45 43 26 24 27 28 33 29 37 35 25 25 26 19 20 24 13 11 27 25 18 20 19 18 14 13 3 12 9 13 8 9 2 0 349 348 349 333
150 196 129 154 147 109 88 110 109 135 108 324 94 116 60 89 111 93 122 125 126 130 125 130 134 131 131 131 125 117 121 145 126 108 117 119 120 109 103 98 95 85 98 100 107 108 107 112 110 112 112 101 93 87 73 66 58 56 46 43 40 19 25 30 34 32 28 26 42 33 28 26 27 23 17 23 8 24 29 28 23 23 21 13 26 14 26 23 24 20 13 12 7 0 1 4 350
170 113 216 177 194 88 99 77 109 178 127 229 90 28 112 107 92 120 119 135 139 127 125 115 124 129 132 129 123 116 127 113 111 110 114 120 103 100 99 98 84 80 95 104 111 117 123 119 125 118 119 114 111 93 84 77 60 41 38 41 38 18 33 33 27 26 33 30 25 46 30 31 28 28 31 26 19 23 31 37 27 28 24 27 30 27 26 31 26 21 18 16 9 12 9 10 9
114 199 157 146 275 113 114 170 41 34 131 231 24 149 106 100 112 102 136 133 134 125 128 129 127 124 126 126 121 130 119 120 115 121 124 108 107 104 97 85 82 86 89 110 119 131 124 123 128 121 119 107 92 88 81 75 70 54 55 50 43 29 37 39 35 29 22 26 35 45 35 33 34 36 37 29 27 31 38 40 38 34 34 36 29 28 27 30 24 21 19 16 10 13 16 12 15
155 232 81 87 72 111 151 138 85 8 359 126 328 82 107 105 111 113 120 136 143 131 128 127 119 127 133 127 124 123 134 135 138 137 115 112 106 101 95 93 82 70 79 106 124 132 131 125 126 125 116 109 99 91 86 80 73 69 59 55 45 39 33 38 38 33 33 36 30 38 42 35 37 38 36 37 30 39 45 49 46 42 39 37 36 32 31 26 23 18 18 15 12 11 16 16 18
109 358 74 46 79 159 127 133 166 149 336 23 295 24 93 120 125 122 133 138 150 135 136 136 138 136 146 137 137 142 139 146 139 125 120 114 103 91 84 85 90 92 90 102 115 134 135 134 129 118 118 108 100 95 92 92 82 78 59 48 44 49 43 35 37 34 39 36 33 40 34 42 37 37 33 37 37 46 52 54 50 41 41 37 36 39 37 28 23 18 17 17 13 14 15 13 13
28 90 124 138 118 26 75 158 94 281 117 299 118 86 105 109 120 130 130 157 169 149 146 151 146 152 152 148 146 143 145 139 123 129 118 111 110 110 111 109 105 105 94 100 117 129 136 133 128 123 120 113 105 97 92 87 92 77 82 67 58 59 63 45 32 41 38 40 38 44 39 34 43 36 42 41 41 53 59 54 44 41 46 42 35 33 34 30 20 14 13 14 13 21 17 18 4
49 10 54 107 135 126 96 107 104 329 207 92 78 98 131 137 134 133 140 162 172 150 152 153 152 161 157 154 146 147 149 127 127 126 128 123 110 108 111 111 108 99 104 104 113 124 123 129 131 124 114 111 111 113 126 110 72 41 51 69 61 43 49 45 38 42 40 39 40 40 42 40 39 41 46 52 53 50 55 50 46 42 45 41 35 30 23 23 14 11 8 6 9 9 17 16 9
95 91 114 84 101 106 106 100 109 116 238 76 86 113 135 144 149 146 145 164 167 165 169 168 165 167 163 154 161 153 144 133 128 131 129 117 123 125 120 119 105 106 101 103 112 118 133 131 132 128 120 127 141 111 60 33 44 86 60 66 71 63 64 72 59 45 44 45 33 39 43 44 48 49 53 54 54 58 53 48 43 36 31 33 29 29 21 15 13 11 4 9 6 6 11 5 10
72 93 106 115 68 102 90 114 124 114 294 112 136 143 135 140 147 155 156 173 177 177 176 175 169 169 167 164 161 149 133 127 138 139 130 136 133 129 127 121 121 103 97 100 106 116 118 123 121 118 127 120 89 52 69 60 25 35 41 42 44 38 42 49 57 58 54 55 42 46 45 46 65 67 64 60 50 50 48 46 41 36 25 26 20 20 15 10 8 6 1 1 1 360 4 7 9
117 66 94 112 83 93 109 132 164 169 262 117 162 178 141 140 155 160 178 185 183 186 183 179 175 172 172 172 163 151 148 147 148 141 146 145 141 132 119 102 91 92 98 106 113 118 124 122 120 121 111 121 112 124 122 80 72 52 44 53 45 89 59 40 53 48 52 61 46 58 58 55 69 75 75 68 69 51 40 34 30 25 19 12 10 11 5 6 6 4 4 359 355 358 354 4 5
99 121 349 51 114 218 128 139 188 168 295 131 173 191 140 153 165 176 188 198 187 190 191 187 192 183 178 176 169 163 157 155 157 154 154 153 143 128 129 117 104 105 112 109 112 116 114 110 109 107 104 95 101 90 75 78 69 82 72 68 56 38 76 97 99 77 73 70 73 58 62 65 59 65 57 65 62 47 27 19 19 11 8 6 3 9 6 2 360 358 3 354 353 348 353 351 355
66 44 63 107 147 110 337 121 163 168 157 193 174 197 160 181 178 189 187 196 197 194 197 203 198 201 189 176 176 172 166 164 160 159 161 158 156 149 136 122 129 113 100 105 113 114 108 109 106 103 100 93 86 93 88 91 110 107 95 98 99 117 102 81 77 74 70 88 85 85 73 56 63 63 59 51 46 41 23 10 5 1 8 357 357 351 355 356 358 356 7 353 354 354 345 343 355
104 54 35 67 116 118 121 141 173 177 148 180 215 201 170 166 188 187 171 186 199 192 202 203 198 196 196 193 186 176 173 165 170 167 162 160 157 148 137 139 126 110 107 111 112 112 110 105 101 99 95 91 93 92 92 103 97 97 107 101 95 84 77 78 77 73 78 74 80 79 70 58 64 47 50 38 25 12 11 359 360 348 356 353 359 351 354 354 353 4 9 2 357 9 350 347 358
159 101 127 118 115 120 137 162 236 68 67 124 205 301 112 162 185 184 171 189 195 190 204 204 200 198 196 197 189 182 180 170 174 168 165 163 158 154 148 148 139 128 120 124 121 119 113 107 104 102 99 97 96 103 112 105 101 93 80 83 81 83 91 83 86 89 84 96 94 87 77 59 48 51 25 21 16 7 3 354 358 353 354 357 359 7 6 8 7 19 10 14 8 7 4 358 1
81 130 154 145 139 142 161 202 337 62 110 130 233 273 320 158 170 179 178 190 194 196 201 205 201 202 198 197 191 187 184 178 172 173 166 162 163 162 162 152 154 141 140 138 132 128 123 123 118 113 107 101 97 117 128 115 105 103 98 86 79 79 82 93 96 91 87 90 82 79 95 77 53 37 28 17 4 4 359 358 2 5 1 8 11 20 21 27 22 30 25 19 17 18 15 8 359
96 157 168 150 151 146 164 290 28 30 258 138 164 205 235 156 117 172 177 196 202 204 203 202 203 199 197 196 192 186 187 177 177 171 170 167 167 168 165 159 151 152 156 146 149 140 137 134 136 125 118 120 113 107 107 102 102 101 97 102 99 97 99 102 102 96 94 84 96 92 52 60 60 33 21 8 2 8 5 8 11 16 19 18 19 35 38 37 38 34 28 26 20 21 22 13 2
132 152 162 136 146 167 201 260 239 126 248 83 68 235 288 117 133 162 184 217 209 209 206 203 199 198 194 193 192 187 184 179 179 174 171 168 167 170 168 160 157 159 159 158 158 152 150 152 153 150 133 137 130 128 112 111 114 118 111 105 106 103 99 90 95 102 99 111 109 84 68 34 23 36 15 6 9 18 19 15 21 34 36 32 35 38 38 41 36 35 38 33 23 16 16 11 7
137 160 153 157 168 187 207 281 278 223 182 75 88 239 285 285 118 153 179 202 220 208 200 201 197 195 195 190 191 186 185 181 178 175 169 168 168 170 172 167 160 163 165 169 167 165 160 169 166 162 146 137 152 137 130 125 123 118 110 110 105 104 91 100 108 99 103 103 75 85 59 43 19 20 4 18 22 29 35 36 35 42 45 43 39 36 32 29 30 31 25 25 28 19 12 6 8
159 171 186 170 188 190 221 212 212 247 86 91 133 274 235 266 123 151 168 163 188 207 191 192 195 193 192 188 190 188 184 182 178 178 172 168 167 174 173 174 169 169 171 176 178 178 173 176 177 176 168 175 172 166 161 145 136 117 104 108 100 93 93 90 80 81 80 88 87 61 46 26 16 10 10 33 38 40 45 43 47 48 45 36 37 38 28 26 23 22 24 19 18 17 16 9 13
223 197 215 257 85 220 172 187 186 44 33 52 324 194 206 230 345 98 161 185 183 206 209 185 194 194 189 187 188 187 182 183 180 178 171 169 172 175 177 177 176 176 180 181 182 181 183 182 182 187 175 185 183 170 179 165 164 147 142 133 111 108 84 63 97 105 77 78 46 40 23 355 358 359 17 29 57 45 48 48 45 44 47 46 39 31 31 28 18 27 21 20 22 17 16 15 16
222 222 236 267 356 23 10 50 38 108 112 77 71 173 264 60 140 145 187 191 203 194 216 226 196 194 187 184 184 184 183 183 182 177 175 174 175 176 178 180 182 181 184 185 184 187 187 187 191 195 180 184 185 187 188 185 182 176 168 179 138 135 121 113 59 50 94 46 12 13 349 351 351 3 33 51 42 51 58 62 57 54 49 45 40 37 33 27 18 16 26 22 22 23 17 13 19
204 296 285 331 327 349 3 11 26 20 28 91 120 229 2 325 343 61 106 113 146 222 227 208 213 198 186 184 182 182 182 184 182 178 179 174 176 174 178 182 184 183 186 187 187 190 187 192 194 199 198 185 190 197 203 195 170 180 186 189 193 222 96 132 140 139 336 347 353 348 338 346 354 20 61 70 72 73 68 62 59 59 52 45 39 33 28 33 23 19 28 25 27 24 21 13 15
136 251 288 257 15 6 346 22 350 358 339 169 159 314 358 32 160 138 185 210 222 232 227 209 190 193 178 182 184 181 181 182 182 178 177 174 173 172 175 180 185 184 185 189 191 189 193 195 193 201 200 190 196 200 205 203 191 179 188 203 211 218 243 268 259 267 290 291 318 326 351 358 33 70 71 79 70 67 70 71 68 58 48 44 38 32 27 30 25 28 32 25 25 23 20 19 14
132 210 207 34 15 298 307 204 285 304 246 56 321 229 146 144 142 146 222 226 214 204 196 191 182 175 170 183 182 180 180 180 182 176 177 173 171 174 175 178 183 184 185 189 193 191 193 198 196 201 202 199 202 198 205 202 203 201 201 204 209 215 229 220 245 256 245 228 270 320 21 60 78 86 97 90 84 73 68 61 59 55 48 43 40 31 31 32 33 33 32 29 23 20 19 20 14
151 239 86 89 254 318 299 337 168 247 355 45 347 359 358 302 152 236 172 188 182 184 172 177 167 163 168 175 180 180 181 179 179 177 174 175 176 176 178 178 182 186 189 186 192 195 194 202 201 196 200 200 201 205 203 204 209 217 224 228 220 219 232 226 228 251 234 242 224 146 118 104 89 94 97 96 94 88 81 71 65 60 51 43 37 34 32 31 35 38 33 32 25 15 19 22 16
296 18 86 251 132 216 158 265 342 341 24 355 84 321 4 348 55 109 149 184 174 178 166 163 168 170 174 174 179 181 179 176 178 179 176 176 179 176 180 179 181 182 193 189 188 196 195 199 202 208 197 197 201 203 206 207 210 217 226 234 232 217 229 238 238 236 234 252 243 115 101 100 107 108 107 104 97 89 81 74 63 57 52 48 42 38 38 40 34 36 30 28 24 18 19 17 21
257 231 223 181 286 347 304 35 318 298 337 317 7 329 64 46 26 351 4 168 173 177 178 183 177 173 173 176 177 178 179 178 179 179 177 176 179 178 178 181 182 181 188 192 186 192 198 199 203 204 206 201 205 207 209 216 215 218 224 222 230 228 222 245 221 215 228 243 148 123 114 109 107 106 100 95 90 82 75 68 64 60 57 48 45 41 38 42 41 37 29 28 22 19 22 19 15
175 215 196 176 263 20 310 239 316 349 329 345 341 333 13 58 12 3 11 135 178 183 185 186 181 170 175 174 174 177 176 177 179 177 177 177 178 181 177 183 187 180 184 188 187 193 196 200 202 204 207 207 212 216 217 219 219 218 227 235 222 209 207 199 189 176 191 129 112 107 109 112 113 104 103 98 91 83 77 73 70 60 54 55 50 47 41 39 42 39 34 25 23 21 21 21 11
257 261 256 260 217 220 264 60 171 290 318 353 316 339 316 70 47 28 355 121 207 192 179 182 183 169 172 169 171 173 170 175 180 178 178 178 178 181 180 181 188 182 184 188 187 193 194 198 201 204 207 212 214 213 216 215 219 220 229 223 211 194 193 180 164 160 143 130 120 114 117 116 108 103 104 99 94 87 80 73 66 66 63 58 56 52 44 39 33 35 37 28 24 21 18 18 14